This demonstration page uses our WeatherBlox Daily Observations layout. Learn more.

Left ArrowRight Arrow

36.17497, -115.13722

Hourly Observations for March 12, 2015

Temp ( °F °C ) Dew Point ( °F °C ) Humidity (%) Winds ( mph kmh ) Pressure ( in mb ) Visibility ( mi km ) Precip ( " mm )
12:53 am 00:53 Cloudy 63 17.2 37 2.8 38 38 NNW 10 17 30.12 1020 10 16 0.00 0.00
1:53 am 01:53 Cloudy 62 16.7 38 3.3 41 41 N 8 13 30.13 1020 10 16 0.00 0.00
2:53 am 02:53 Cloudy 61 16.1 38 3.3 43 43 NNW 8 13 30.12 1020 10 16 0.00 0.00
3:53 am 03:53 Mostly Cloudy 61 16.1 37 2.8 41 41 N 16 26 30.11 1020 10 16 0.00 0.00
4:53 am 04:53 Mostly Clear 59 15 38 3.3 46 46 N 10 17 30.11 1020 10 16 0.00 0.00
5:53 am 05:53 Clear 57 13.9 37 2.8 47 47 N 6 9 30.13 1020 10 16 0.00 0.00
6:53 am 06:53 Clear 52 11.1 37 2.8 57 57 N 14 22 30.15 1021 10 16 0.00 0.00
7:53 am 07:53 Sunny 59 15 37 2.8 44 44 N 18 30 30.16 1021 10 16 0.00 0.00
8:53 am 08:53 Sunny 63 17.2 37 2.8 38 38 N 15 24 30.17 1022 10 16 0.00 0.00
9:53 am 09:53 Sunny 68 20 37 2.8 32 32 N 16 26 30.16 1022 10 16 0.00 0.00
10:53 am 10:53 Sunny 71 21.7 35 1.7 27 27 NNW 16 26 30.16 1021 10 16 0.00 0.00
11:53 am 11:53 Sunny 73 22.8 34 1.1 24 24 NW 18 30 30.15 1021 10 16 0.00 0.00
12:53 pm 12:53 Sunny 75 23.9 33 0.6 22 22 NNW 20 31 30.13 1020 10 16 0.00 0.00
1:53 pm 13:53 Cloudy 74 23.3 31 -0.6 20 20 NE 10 17 30.11 1020 10 16 0.00 0.00
2:53 pm 14:53 Mostly Cloudy 75 23.9 30 -1.1 19 19 ENE 5 7 30.09 1019 10 16 0.00 0.00
3:53 pm 15:53 Mostly Sunny 76 24.4 29 -1.7 18 18 VRB 5 7 30.08 1019 10 16 0.00 0.00
4:53 pm 16:53 Mostly Sunny 78 25.6 30 -1.1 17 17 ENE 14 22 30.08 1019 10 16 0.00 0.00
5:53 pm 17:53 Mostly Sunny 75 23.9 31 -0.6 20 20 ENE 12 19 30.09 1019 10 16 0.00 0.00
6:53 pm 18:53 Clear 73 22.8 31 -0.6 21 21 E 17 28 30.11 1020 10 16 0.00 0.00
7:53 pm 19:53 Clear 72 22.2 32 0 23 23 ENE 16 26 30.12 1020 10 16 0.00 0.00
8:53 pm 20:53 Clear 70 21.1 32 0 25 25 NE 9 15 30.14 1021 10 16 0.00 0.00
9:53 pm 21:53 Clear 66 18.9 33 0.6 29 29 Calm 30.16 1021 10 16 0.00 0.00
10:53 pm 22:53 Clear 65 18.3 32 0 29 29 NNE 5 7 30.17 1022 10 16 0.00 0.00
11:53 pm 23:53 Clear 66 18.9 31 -0.6 27 27 NE 9 15 30.19 1022 10 16 0.00 0.00

Powered by AerisWeather